DEDAF EDFZ-EDKB

Flight info

Callsign DEDAF
Flight time 0h 48m
Altitude 2000
Route 4958N00806E DCT 4960N00805E 4958N00753E 5014N00738E 5019N00735E 5024N00736E 5025N00729E DCT 5028N00722E 5031N00718E 5039N00713E DCT 5045N00709E
Aircraft PA38/L-SDGRY/S

Departure

Time 2026-04-27 17:39
Airport Mainz-Finthen Airfield (EDFZ)

Arrival

Time 2026-04-27 18:27
Airport Bonn-Hangelar Airfield (EDKB)
Time Latitude Longitude Altitude Speed Heading
2026-04-27 17:34 49.97136 8.14926 760 ft 0 kts 249°
2026-04-27 17:36 49.97133 8.14918 758 ft 6 kts 227°
2026-04-27 17:36 49.97083 8.14831 760 ft 12 kts 251°
2026-04-27 17:37 49.97054 8.14740 760 ft 13 kts 255°
2026-04-27 17:37 49.97015 8.14601 758 ft 14 kts 177°
2026-04-27 17:37 49.96912 8.14644 758 ft 17 kts 196°
2026-04-27 17:37 49.96835 8.14331 758 ft 54 kts 253°
2026-04-27 17:38 49.96697 8.13703 866 ft 65 kts 250°
2026-04-27 17:38 49.96541 8.13019 991 ft 70 kts 272°
2026-04-27 17:38 49.96695 8.12312 1145 ft 73 kts 298°
2026-04-27 17:38 49.96663 8.11493 1330 ft 78 kts 252°
2026-04-27 17:39 49.96692 8.10708 1528 ft 78 kts 288°
2026-04-27 17:39 49.96644 8.09703 1528 ft 103 kts 265°
2026-04-27 17:39 49.96613 8.08532 1474 ft 113 kts 271°
2026-04-27 17:39 49.96645 8.07335 1465 ft 110 kts 298°
2026-04-27 17:40 49.97243 8.06908 1466 ft 99 kts
2026-04-27 17:40 49.97929 8.06795 1469 ft 100 kts 353°
2026-04-27 17:40 49.98600 8.06507 1468 ft 103 kts 334°
2026-04-27 17:40 49.99218 8.05924 1471 ft 107 kts 323°
2026-04-27 17:41 49.99436 8.04807 1459 ft 112 kts 272°
2026-04-27 17:41 49.99468 8.03603 1469 ft 112 kts 278°
2026-04-27 17:41 49.99353 8.02415 1464 ft 113 kts 254°
2026-04-27 17:41 49.99035 8.01310 1453 ft 113 kts 232°
2026-04-27 17:42 49.98698 8.00248 1463 ft 112 kts 261°
2026-04-27 17:42 49.98490 7.99053 1464 ft 116 kts 255°
2026-04-27 17:42 49.98261 7.97845 1471 ft 117 kts 258°
2026-04-27 17:42 49.98064 7.96645 1474 ft 114 kts 256°
2026-04-27 17:43 49.97862 7.95452 1473 ft 114 kts 257°
2026-04-27 17:43 49.97660 7.94246 1472 ft 114 kts 258°
2026-04-27 17:43 49.97462 7.93055 1474 ft 114 kts 257°
2026-04-27 17:43 49.97261 7.91874 1467 ft 114 kts 257°
2026-04-27 17:44 49.97071 7.90703 1470 ft 111 kts 257°
2026-04-27 17:44 49.96871 7.89532 1467 ft 112 kts 258°
2026-04-27 17:44 49.96980 7.88380 1460 ft 110 kts 304°
2026-04-27 17:44 49.97501 7.87561 1454 ft 104 kts 336°
2026-04-27 17:45 49.98092 7.86993 1450 ft 93 kts 327°
2026-04-27 17:45 49.98661 7.86478 1475 ft 99 kts 336°
2026-04-27 17:45 49.99272 7.85906 1477 ft 104 kts 332°
2026-04-27 17:45 49.99910 7.85313 1470 ft 108 kts 334°
2026-04-27 17:46 50.00549 7.84783 1436 ft 99 kts 337°
2026-04-27 17:46 50.01121 7.84187 1470 ft 101 kts 331°
2026-04-27 17:46 50.01740 7.83600 1476 ft 107 kts 334°
2026-04-27 17:46 50.02374 7.83013 1474 ft 106 kts 333°
2026-04-27 17:47 50.03010 7.82438 1466 ft 103 kts 334°
2026-04-27 17:47 50.03420 7.82071 1449 ft 97 kts 331°
2026-04-27 17:47 50.04116 7.81372 1448 ft 85 kts 333°
2026-04-27 17:47 50.04599 7.80931 1460 ft 76 kts 332°
2026-04-27 17:48 50.05077 7.80479 1467 ft 87 kts 334°
2026-04-27 17:48 50.05621 7.79996 1471 ft 95 kts 334°
2026-04-27 17:48 50.06184 7.79458 1474 ft 96 kts 335°
2026-04-27 17:48 50.06787 7.78908 1475 ft 104 kts 331°
2026-04-27 17:49 50.07399 7.78294 1463 ft 104 kts 332°
2026-04-27 17:49 50.08025 7.77734 1468 ft 104 kts 333°
2026-04-27 17:49 50.08659 7.77181 1457 ft 103 kts 331°
2026-04-27 17:49 50.09252 7.76615 1456 ft 98 kts 331°
2026-04-27 17:50 50.09816 7.76034 1455 ft 97 kts 328°
2026-04-27 17:50 50.10977 7.74973 1463 ft 100 kts 331°
2026-04-27 17:50 50.11587 7.74388 1472 ft 105 kts 330°
2026-04-27 17:51 50.12229 7.73810 1471 ft 107 kts 331°
2026-04-27 17:51 50.12860 7.73204 1465 ft 106 kts 331°
2026-04-27 17:51 50.13494 7.72609 1470 ft 106 kts 332°
2026-04-27 17:51 50.14131 7.72006 1467 ft 108 kts 330°
2026-04-27 17:52 50.14777 7.71401 1468 ft 108 kts 331°
2026-04-27 17:52 50.15417 7.70804 1468 ft 109 kts 331°
2026-04-27 17:52 50.16065 7.70197 1469 ft 109 kts 330°
2026-04-27 17:52 50.16717 7.69575 1472 ft 111 kts 332°
2026-04-27 17:53 50.17380 7.68955 1473 ft 111 kts 330°
2026-04-27 17:53 50.18045 7.68328 1471 ft 111 kts 333°
2026-04-27 17:53 50.18705 7.67711 1472 ft 110 kts 332°
2026-04-27 17:53 50.19350 7.67079 1473 ft 112 kts 331°
2026-04-27 17:54 50.20030 7.66472 1467 ft 112 kts 334°
2026-04-27 17:54 50.20703 7.65876 1463 ft 111 kts 329°
2026-04-27 17:54 50.21346 7.65219 1468 ft 109 kts 330°
2026-04-27 17:54 50.21972 7.64569 1472 ft 110 kts 332°
2026-04-27 17:55 50.22654 7.63990 1468 ft 113 kts 333°
2026-04-27 17:55 50.23320 7.63360 1467 ft 111 kts 332°
2026-04-27 17:55 50.24035 7.62953 1464 ft 110 kts 345°
2026-04-27 17:55 50.24755 7.62495 1461 ft 111 kts 342°
2026-04-27 17:56 50.25476 7.62059 1461 ft 111 kts 343°
2026-04-27 17:56 50.26202 7.61620 1461 ft 112 kts 341°
2026-04-27 17:56 50.26927 7.61181 1468 ft 113 kts 341°
2026-04-27 17:56 50.27670 7.60746 1468 ft 115 kts 343°
2026-04-27 17:57 50.28409 7.60303 1466 ft 112 kts 341°
2026-04-27 17:57 50.29132 7.59867 1459 ft 111 kts 341°
2026-04-27 17:57 50.29845 7.59436 1463 ft 110 kts 341°
2026-04-27 17:57 50.30570 7.59003 1467 ft 111 kts 342°
2026-04-27 17:58 50.31282 7.58574 1467 ft 111 kts 340°
2026-04-27 17:58 50.32023 7.58382 1454 ft 107 kts 13°
2026-04-27 17:58 50.32765 7.58547 1466 ft 109 kts 10°
2026-04-27 17:58 50.33513 7.58722 1465 ft 107 kts 10°
2026-04-27 17:59 50.34252 7.58863 1462 ft 106 kts
2026-04-27 17:59 50.34992 7.59009 1463 ft 108 kts 10°
2026-04-27 17:59 50.35740 7.59159 1462 ft 108 kts
2026-04-27 17:59 50.36490 7.59306 1463 ft 108 kts 11°
2026-04-27 18:00 50.37240 7.59455 1462 ft 109 kts 11°
2026-04-27 18:00 50.37991 7.59602 1463 ft 109 kts 11°
2026-04-27 18:00 50.38734 7.59754 1462 ft 109 kts
2026-04-27 18:00 50.39487 7.59796 1457 ft 110 kts 349°
2026-04-27 18:01 50.40085 7.59052 1458 ft 114 kts 306°
2026-04-27 18:01 50.40311 7.57878 1458 ft 112 kts 281°
2026-04-27 18:01 50.40490 7.56674 1461 ft 113 kts 283°
2026-04-27 18:01 50.40655 7.55476 1462 ft 112 kts 283°
2026-04-27 18:02 50.40828 7.54281 1464 ft 112 kts 283°
2026-04-27 18:02 50.40997 7.53080 1466 ft 113 kts 283°
2026-04-27 18:02 50.41164 7.51895 1464 ft 111 kts 283°
2026-04-27 18:02 50.41336 7.50699 1463 ft 113 kts 283°
2026-04-27 18:03 50.41505 7.49501 1458 ft 112 kts 284°
2026-04-27 18:03 50.41689 7.48319 1459 ft 111 kts 291°
2026-04-27 18:03 50.42115 7.47328 1458 ft 109 kts 308°
2026-04-27 18:03 50.42526 7.46333 1460 ft 110 kts 305°
2026-04-27 18:04 50.42959 7.45337 1462 ft 111 kts 305°
2026-04-27 18:04 50.43390 7.44329 1464 ft 111 kts 306°
2026-04-27 18:04 50.43820 7.43324 1463 ft 110 kts 305°
2026-04-27 18:04 50.44251 7.42329 1460 ft 110 kts 306°
2026-04-27 18:05 50.44673 7.41335 1459 ft 107 kts 307°
2026-04-27 18:05 50.45095 7.40374 1466 ft 108 kts 305°
2026-04-27 18:05 50.45506 7.39389 1467 ft 108 kts 306°
2026-04-27 18:05 50.45925 7.38406 1461 ft 108 kts 305°
2026-04-27 18:06 50.46313 7.37456 1458 ft 101 kts 306°
2026-04-27 18:06 50.46738 7.36571 1450 ft 101 kts 316°
2026-04-27 18:06 50.47266 7.35898 1459 ft 97 kts 324°
2026-04-27 18:06 50.47785 7.35189 1456 ft 100 kts 320°
2026-04-27 18:07 50.48306 7.34485 1458 ft 97 kts 322°
2026-04-27 18:07 50.48824 7.33803 1463 ft 98 kts 323°
2026-04-27 18:07 50.49343 7.33103 1470 ft 100 kts 324°
2026-04-27 18:07 50.49889 7.32394 1473 ft 103 kts 323°
2026-04-27 18:08 50.50435 7.31657 1472 ft 104 kts 322°
2026-04-27 18:08 50.50985 7.30936 1473 ft 103 kts 321°
2026-04-27 18:08 50.51528 7.30188 1473 ft 104 kts 322°
2026-04-27 18:08 50.52157 7.29691 1476 ft 104 kts 345°
2026-04-27 18:09 50.52839 7.29272 1473 ft 106 kts 339°
2026-04-27 18:09 50.53521 7.28855 1472 ft 104 kts 340°
2026-04-27 18:09 50.54197 7.28426 1471 ft 105 kts 341°
2026-04-27 18:09 50.54877 7.28005 1472 ft 105 kts 342°
2026-04-27 18:10 50.55561 7.27579 1469 ft 105 kts 341°
2026-04-27 18:10 50.56243 7.27159 1471 ft 106 kts 340°
2026-04-27 18:10 50.56920 7.26730 1470 ft 104 kts 340°
2026-04-27 18:10 50.57595 7.26303 1471 ft 105 kts 340°
2026-04-27 18:11 50.58273 7.25896 1473 ft 106 kts 340°
2026-04-27 18:11 50.58956 7.25465 1470 ft 105 kts 341°
2026-04-27 18:11 50.59628 7.25030 1473 ft 105 kts 340°
2026-04-27 18:11 50.60315 7.24613 1472 ft 106 kts 341°
2026-04-27 18:12 50.60996 7.24179 1471 ft 106 kts 340°
2026-04-27 18:12 50.61686 7.23751 1472 ft 107 kts 340°
2026-04-27 18:12 50.62372 7.23322 1470 ft 105 kts 340°
2026-04-27 18:12 50.63051 7.22897 1472 ft 105 kts 340°
2026-04-27 18:13 50.63741 7.22469 1471 ft 108 kts 339°
2026-04-27 18:13 50.64434 7.22030 1470 ft 107 kts 341°
2026-04-27 18:13 50.65124 7.21588 1471 ft 107 kts 338°
2026-04-27 18:13 50.65793 7.21129 1465 ft 104 kts 341°
2026-04-27 18:14 50.66446 7.20704 1385 ft 93 kts 341°
2026-04-27 18:14 50.66996 7.20312 1456 ft 92 kts 342°
2026-04-27 18:14 50.67628 7.19925 1461 ft 100 kts 341°
2026-04-27 18:14 50.68278 7.19493 1469 ft 102 kts 342°
2026-04-27 18:15 50.68917 7.19090 1445 ft 93 kts 340°
2026-04-27 18:15 50.69488 7.18720 1468 ft 91 kts 339°
2026-04-27 18:15 50.70083 7.18269 1464 ft 97 kts 339°
2026-04-27 18:15 50.70708 7.17855 1473 ft 101 kts 343°
2026-04-27 18:16 50.71367 7.17434 1468 ft 103 kts 343°
2026-04-27 18:16 50.72012 7.16995 1474 ft 102 kts 342°
2026-04-27 18:16 50.72671 7.16567 1473 ft 103 kts 342°
2026-04-27 18:16 50.73274 7.15960 1459 ft 108 kts 306°
2026-04-27 18:17 50.73214 7.14797 1449 ft 117 kts 234°
2026-04-27 18:17 50.72502 7.14363 1453 ft 112 kts 168°
2026-04-27 18:17 50.71856 7.14963 1457 ft 107 kts 146°
2026-04-27 18:17 50.71211 7.15559 1459 ft 107 kts 143°
2026-04-27 18:18 50.70575 7.16185 1463 ft 108 kts 144°
2026-04-27 18:18 50.70150 7.16598 1464 ft 108 kts 144°
2026-04-27 18:18 50.69511 7.17236 1470 ft 110 kts 143°
2026-04-27 18:18 50.68635 7.18066 1471 ft 111 kts 144°
2026-04-27 18:19 50.68194 7.18502 1473 ft 110 kts 144°
2026-04-27 18:19 50.67545 7.19146 1471 ft 110 kts 144°
2026-04-27 18:19 50.66875 7.19719 1459 ft 111 kts 163°
2026-04-27 18:19 50.66198 7.19250 1450 ft 114 kts 239°
2026-04-27 18:20 50.66212 7.18097 1455 ft 109 kts 307°
2026-04-27 18:20 50.66847 7.17715 1458 ft 101 kts 17°
2026-04-27 18:20 50.67250 7.18533 1455 ft 102 kts 82°
2026-04-27 18:20 50.67295 7.19632 1466 ft 100 kts 79°
2026-04-27 18:21 50.67433 7.20709 1462 ft 100 kts 59°
2026-04-27 18:21 50.68028 7.21044 1447 ft 99 kts 341°
2026-04-27 18:21 50.68532 7.20481 1442 ft 76 kts 329°
2026-04-27 18:21 50.68965 7.20064 1439 ft 76 kts 326°
2026-04-27 18:22 50.69415 7.19512 1484 ft 88 kts 331°
2026-04-27 18:22 50.69945 7.18879 1474 ft 101 kts 328°
2026-04-27 18:22 50.70522 7.18202 1470 ft 106 kts 327°
2026-04-27 18:22 50.70979 7.17219 1332 ft 119 kts 300°
2026-04-27 18:23 50.71322 7.16070 1180 ft 105 kts 298°
2026-04-27 18:23 50.71642 7.15140 1093 ft 90 kts 310°
2026-04-27 18:23 50.72058 7.14491 1118 ft 77 kts 321°
2026-04-27 18:23 50.72495 7.14041 1123 ft 75 kts 338°
2026-04-27 18:24 50.73004 7.13880 1084 ft 75 kts
2026-04-27 18:24 50.73495 7.13983 1114 ft 67 kts 17°
2026-04-27 18:24 50.73938 7.14169 1129 ft 62 kts 19°
2026-04-27 18:24 50.74354 7.14375 1158 ft 62 kts 21°
2026-04-27 18:25 50.74820 7.14359 1033 ft 79 kts 326°
2026-04-27 18:25 50.75086 7.13649 1053 ft 71 kts 297°
2026-04-27 18:25 50.75371 7.13053 1110 ft 59 kts 321°
2026-04-27 18:25 50.75743 7.12496 1009 ft 79 kts 330°
2026-04-27 18:26 50.76271 7.12600 794 ft 86 kts 28°
2026-04-27 18:26 50.76739 7.12964 772 ft 68 kts 27°
2026-04-27 18:26 50.77124 7.13347 677 ft 66 kts 39°
2026-04-27 18:26 50.77321 7.14005 537 ft 72 kts 82°
2026-04-27 18:27 50.77227 7.14817 416 ft 80 kts 103°
2026-04-27 18:27 50.77044 7.15617 292 ft 75 kts 105°
2026-04-27 18:27 50.76893 7.16340 205 ft 60 kts 105°
2026-04-27 18:27 50.76800 7.16733 206 ft 20 kts 120°
2026-04-27 18:28 50.76714 7.16753 205 ft 7 kts 240°
2026-04-27 18:28 50.76717 7.16696 201 ft 5 kts 293°
2026-04-27 18:28 50.76731 7.16630 202 ft 7 kts 287°
2026-04-27 18:28 50.76754 7.16578 202 ft 2 kts
2026-04-27 18:29 50.76759 7.16581 202 ft 0 kts 19°